Time,TemperatureF,DewpointF,PressureIn,WindDirection,WindDirectionDegrees,WindSpeedMPH,WindSpeedGustMPH,Humidity,HourlyPrecipIn,Conditions,Clouds,dailyrainin,SoftwareType,DateUTC
2013-01-31 00:04:00,48.0,-99.9,-100.00,North,-999,-999.0,-999.0,-999,0.00,,,0.20,,2013-01-31 05:04:00,
2013-01-31 00:12:00,48.0,-99.9,-100.00,North,-999,-999.0,-999.0,-999,0.00,,,0.20,,2013-01-31 05:12:00,
2013-01-31 00:42:00,47.0,-99.9,-100.00,North,-999,-999.0,-999.0,-999,0.03,,,0.21,,2013-01-31 05:42:00,
2013-01-31 01:01:00,47.0,-99.9,-100.00,North,-999,-999.0,-999.0,-999,0.03,,,0.21,,2013-01-31 06:01:00,
2013-01-31 01:11:00,47.0,-99.9,-100.00,North,-999,-999.0,-999.0,-999,0.03,,,0.21,,2013-01-31 06:11:00,
2013-01-31 09:03:00,50.0,-99.9,-100.00,North,-999,-999.0,-999.0,-999,0.00,,,0.50,,2013-01-31 14:03:00,
2013-01-31 09:12:00,50.0,-99.9,-100.00,North,-999,-999.0,-999.0,-999,0.00,,,0.50,,2013-01-31 14:12:00,
2013-01-31 09:32:00,42.0,-99.9,-100.00,North,-999,-999.0,-999.0,-999,0.08,,,0.58,,2013-01-31 14:32:00,
2013-01-31 09:42:00,42.0,-99.9,-100.00,North,-999,-999.0,-999.0,-999,0.08,,,0.58,,2013-01-31 14:42:00,
2013-01-31 09:53:00,42.0,-99.9,-100.00,North,-999,-999.0,-999.0,-999,0.08,,,0.58,,2013-01-31 14:53:00,
2013-01-31 10:04:00,42.0,-99.9,-100.00,North,-999,-999.0,-999.0,-999,0.08,,,0.58,,2013-01-31 15:04:00,
2013-01-31 10:12:00,42.0,-99.9,-100.00,North,-999,-999.0,-999.0,-999,0.08,,,0.58,,2013-01-31 15:12:00,
2013-01-31 10:33:00,38.0,-99.9,-100.00,North,-999,-999.0,-999.0,-999,0.01,,,0.59,,2013-01-31 15:33:00,
2013-01-31 10:43:00,38.0,-99.9,-100.00,North,-999,-999.0,-999.0,-999,0.01,,,0.59,,2013-01-31 15:43:00,
2013-01-31 10:53:00,38.0,-99.9,-100.00,North,-999,-999.0,-999.0,-999,0.01,,,0.59,,2013-01-31 15:53:00,
2013-01-31 11:04:00,38.0,-99.9,-100.00,North,-999,-999.0,-999.0,-999,0.01,,,0.59,,2013-01-31 16:04:00,
2013-01-31 11:13:00,38.0,-99.9,-100.00,North,-999,-999.0,-999.0,-999,0.01,,,0.59,,2013-01-31 16:13:00,
2013-01-31 11:42:00,37.0,-99.9,-100.00,North,-999,-999.0,-999.0,-999,0.00,,,0.59,,2013-01-31 16:42:00,
2013-01-31 11:53:00,37.0,-99.9,-100.00,North,-999,-999.0,-999.0,-999,0.00,,,0.59,,2013-01-31 16:53:00,
2013-01-31 12:03:00,37.0,-99.9,-100.00,North,-999,-999.0,-999.0,-999,0.00,,,0.59,,2013-01-31 17:03:00,
2013-01-31 12:13:00,37.0,-99.9,-100.00,North,-999,-999.0,-999.0,-999,0.00,,,0.59,,2013-01-31 17:13:00,
2013-01-31 12:44:00,37.0,-99.9,-100.00,North,-999,-999.0,-999.0,-999,0.01,,,0.60,,2013-01-31 17:44:00,
2013-01-31 12:54:00,37.0,-99.9,-100.00,North,-999,-999.0,-999.0,-999,0.01,,,0.60,,2013-01-31 17:54:00,
2013-01-31 13:04:00,37.0,-99.9,-100.00,North,-999,-999.0,-999.0,-999,0.01,,,0.60,,2013-01-31 18:04:00,
2013-01-31 13:13:00,37.0,-99.9,-100.00,North,-999,-999.0,-999.0,-999,0.01,,,0.60,,2013-01-31 18:13:00,
2013-01-31 13:33:00,36.0,-99.9,-100.00,North,-999,-999.0,-999.0,-999,0.00,,,0.60,,2013-01-31 18:33:00,
2013-01-31 13:43:00,36.0,-99.9,-100.00,North,-999,-999.0,-999.0,-999,0.00,,,0.60,,2013-01-31 18:43:00,
2013-01-31 13:53:00,36.0,-99.9,-100.00,North,-999,-999.0,-999.0,-999,0.00,,,0.60,,2013-01-31 18:53:00,
2013-01-31 14:03:00,36.0,-99.9,-100.00,North,-999,-999.0,-999.0,-999,0.00,,,0.60,,2013-01-31 19:03:00,
2013-01-31 14:13:00,36.0,-99.9,-100.00,North,-999,-999.0,-999.0,-999,0.00,,,0.60,,2013-01-31 19:13:00,
2013-01-31 14:43:00,35.0,-99.9,-100.00,North,-999,-999.0,-999.0,-999,0.00,,,0.60,,2013-01-31 19:43:00,
2013-01-31 14:53:00,35.0,-99.9,-100.00,North,-999,-999.0,-999.0,-999,0.00,,,0.60,,2013-01-31 19:53:00,
2013-01-31 15:03:00,35.0,-99.9,-100.00,North,-999,-999.0,-999.0,-999,0.00,,,0.60,,2013-01-31 20:03:00,
2013-01-31 15:12:00,35.0,-99.9,-100.00,North,-999,-999.0,-999.0,-999,0.00,,,0.60,,2013-01-31 20:12:00,
2013-01-31 15:42:00,33.0,-99.9,-100.00,North,-999,-999.0,-999.0,-999,0.00,,,0.60,,2013-01-31 20:42:00,
2013-01-31 15:53:00,33.0,-99.9,-100.00,North,-999,-999.0,-999.0,-999,0.00,,,0.60,,2013-01-31 20:53:00,
2013-01-31 16:03:00,33.0,-99.9,-100.00,North,-999,-999.0,-999.0,-999,0.00,,,0.60,,2013-01-31 21:03:00,
2013-01-31 16:13:00,33.0,-99.9,-100.00,North,-999,-999.0,-999.0,-999,0.00,,,0.60,,2013-01-31 21:13:00,
2013-01-31 16:42:00,31.0,-99.9,-100.00,North,-999,-999.0,-999.0,-999,0.00,,,0.60,,2013-01-31 21:42:00,
2013-01-31 16:52:00,31.0,-99.9,-100.00,North,-999,-999.0,-999.0,-999,0.00,,,0.60,,2013-01-31 21:52:00,
2013-01-31 17:03:00,31.0,-99.9,-100.00,North,-999,-999.0,-999.0,-999,0.00,,,0.60,,2013-01-31 22:03:00,
2013-01-31 17:11:00,31.0,-99.9,-100.00,North,-999,-999.0,-999.0,-999,0.00,,,0.60,,2013-01-31 22:11:00,
2013-01-31 17:43:00,27.0,-99.9,-100.00,North,-999,-999.0,-999.0,-999,0.00,,,0.60,,2013-01-31 22:43:00,
2013-01-31 17:52:00,27.0,-99.9,-100.00,North,-999,-999.0,-999.0,-999,0.00,,,0.60,,2013-01-31 22:52:00,
2013-01-31 18:03:00,27.0,-99.9,-100.00,North,-999,-999.0,-999.0,-999,0.00,,,0.60,,2013-01-31 23:03:00,
2013-01-31 18:12:00,27.0,-99.9,-100.00,North,-999,-999.0,-999.0,-999,0.00,,,0.60,,2013-01-31 23:12:00,
2013-01-31 18:32:00,29.0,-99.9,-100.00,North,-999,-999.0,-999.0,-999,0.00,,,0.59,,2013-01-31 23:32:00,
2013-01-31 18:43:00,29.0,-99.9,-100.00,North,-999,-999.0,-999.0,-999,0.00,,,0.59,,2013-01-31 23:43:00,
2013-01-31 18:52:00,29.0,-99.9,-100.00,North,-999,-999.0,-999.0,-999,0.00,,,0.59,,2013-01-31 23:52:00,
2013-01-31 19:02:00,29.0,-99.9,-100.00,North,-999,-999.0,-999.0,-999,0.00,,,0.59,,2013-02-01 00:02:00,
2013-01-31 19:12:00,29.0,-99.9,-100.00,North,-999,-999.0,-999.0,-999,0.00,,,0.59,,2013-02-01 00:12:00,
2013-01-31 19:32:00,27.0,-99.9,-100.00,North,-999,-999.0,-999.0,-999,0.00,,,0.58,,2013-02-01 00:32:00,
2013-01-31 19:42:00,27.0,-99.9,-100.00,North,-999,-999.0,-999.0,-999,0.00,,,0.58,,2013-02-01 00:42:00,
2013-01-31 19:52:00,27.0,-99.9,-100.00,North,-999,-999.0,-999.0,-999,0.00,,,0.58,,2013-02-01 00:52:00,
2013-01-31 20:02:00,27.0,-99.9,-100.00,North,-999,-999.0,-999.0,-999,0.00,,,0.58,,2013-02-01 01:02:00,
2013-01-31 20:12:00,27.0,-99.9,-100.00,North,-999,-999.0,-999.0,-999,0.00,,,0.58,,2013-02-01 01:12:00,
2013-01-31 20:32:00,26.0,-99.9,-100.00,North,-999,-999.0,-999.0,-999,0.00,,,0.57,,2013-02-01 01:32:00,
2013-01-31 20:42:00,26.0,-99.9,-100.00,North,-999,-999.0,-999.0,-999,0.00,,,0.57,,2013-02-01 01:42:00,
2013-01-31 20:52:00,26.0,-99.9,-100.00,North,-999,-999.0,-999.0,-999,0.00,,,0.57,,2013-02-01 01:52:00,
2013-01-31 21:03:00,26.0,-99.9,-100.00,North,-999,-999.0,-999.0,-999,0.00,,,0.57,,2013-02-01 02:03:00,
2013-01-31 21:12:00,26.0,-99.9,-100.00,North,-999,-999.0,-999.0,-999,0.00,,,0.57,,2013-02-01 02:12:00,
2013-01-31 21:32:00,24.0,-99.9,-100.00,North,-999,-999.0,-999.0,-999,0.00,,,0.56,,2013-02-01 02:32:00,
2013-01-31 21:42:00,24.0,-99.9,-100.00,North,-999,-999.0,-999.0,-999,0.00,,,0.56,,2013-02-01 02:42:00,
2013-01-31 21:53:00,24.0,-99.9,-100.00,North,-999,-999.0,-999.0,-999,0.00,,,0.56,,2013-02-01 02:53:00,
2013-01-31 22:02:00,24.0,-99.9,-100.00,North,-999,-999.0,-999.0,-999,0.00,,,0.56,,2013-02-01 03:02:00,
2013-01-31 22:12:00,24.0,-99.9,-100.00,North,-999,-999.0,-999.0,-999,0.00,,,0.56,,2013-02-01 03:12:00,
2013-01-31 22:33:00,19.0,-99.9,-100.00,North,-999,-999.0,-999.0,-999,0.00,,,-99.99,,2013-02-01 03:33:00,
2013-01-31 22:42:00,19.0,-99.9,-100.00,North,-999,-999.0,-999.0,-999,0.00,,,-99.99,,2013-02-01 03:42:00,
2013-01-31 22:52:00,19.0,-99.9,-100.00,North,-999,-999.0,-999.0,-999,0.00,,,-99.99,,2013-02-01 03:52:00,
2013-01-31 23:02:00,19.0,-99.9,-100.00,North,-999,-999.0,-999.0,-999,0.00,,,-99.99,,2013-02-01 04:02:00,
2013-01-31 23:12:00,19.0,-99.9,-100.00,North,-999,-999.0,-999.0,-999,0.00,,,-99.99,,2013-02-01 04:12:00,
2013-01-31 23:42:00,18.0,-99.9,-100.00,North,-999,-999.0,-999.0,-999,0.00,,,0.54,,2013-02-01 04:42:00,
2013-01-31 23:52:00,18.0,-99.9,-100.00,North,-999,-999.0,-999.0,-999,0.00,,,0.54,,2013-02-01 04:52:00,